| time (UTC) | temp F | wind direction | speed MPH | gust MPH | rain 1hr in | rain 24hr in | rain mn in | humidity % | barometer mb |
| 20260904011101 | 67 | 0 | 0.0 | 1.0 | 0.00 | 0.35 | 0.35 | 99 | 1015.1 |
| 20260904010901 | 67 | 0 | 0.0 | 1.0 | 0.00 | 0.35 | 0.35 | 99 | 1015.1 |
| 20260904010101 | 67 | 71 | 0.0 | 1.0 | 0.00 | 0.35 | 0.35 | 99 | 1015.0 |
| 20260904005901 | 67 | 0 | 0.0 | 1.0 | 0.00 | 0.35 | 0.35 | 99 | 1015.0 |
| 20260904005100 | 67 | 0 | 0.0 | 1.0 | 0.00 | 0.35 | 0.35 | 99 | 1014.9 |
| 20260904005025 | 68 | 53 | 0.0 | 1.0 | 0.00 | 0.35 | 0.35 | 99 | 1014.7 |
| 20260904004900 | 67 | 0 | 0.0 | 1.0 | 0.00 | 0.35 | 0.35 | 99 | 1014.8 |
| 20260904003901 | 68 | 0 | 0.0 | 1.0 | 0.00 | 0.35 | 0.35 | 99 | 1014.7 |
| 20260904003345 | 68 | 0 | 0.0 | 2.0 | 0.00 | 0.35 | 0.35 | 98 | 1014.6 |
| 20260904003141 | 68 | 0 | 0.0 | 2.0 | 0.00 | 0.35 | 0.35 | 98 | 1014.6 |
| 20260904002055 | 68 | 78 | 0.0 | 2.0 | 0.00 | 0.35 | 0.35 | 98 | 1014.2 |
| 20260904001900 | 68 | 0 | 0.0 | 2.0 | 0.00 | 0.35 | 0.35 | 98 | 1014.2 |
| 20260904001056 | 68 | 0 | 1.0 | 3.0 | 0.00 | 0.35 | 0.35 | 98 | 1014.2 |
| 20260904000902 | 68 | 0 | 1.0 | 3.0 | 0.00 | 0.35 | 0.35 | 98 | 1014.2 |
| 20260904000634 | 69 | 300 | 1.0 | 4.0 | 0.00 | 0.35 | 0.35 | 98 | 1014.2 |
| 20260904000442 | 69 | 58 | 1.0 | 4.0 | 0.00 | 0.35 | 0.35 | 98 | 1014.1 |
| 20260903235339 | 69 | 0 | 0.0 | 3.0 | 0.00 | 0.35 | 0.35 | 98 | 1014.0 |
| 20260903235142 | 69 | 323 | 0.0 | 3.0 | 0.00 | 0.35 | 0.35 | 98 | 1014.1 |
| 20260903234051 | 69 | 177 | 0.0 | 2.0 | 0.00 | 0.35 | 0.35 | 98 | 1013.9 |
| 20260903233903 | 69 | 199 | 0.0 | 2.0 | 0.00 | 0.35 | 0.35 | 98 | 1013.9 |
| 20260903233050 | 69 | 0 | 0.0 | 2.0 | 0.00 | 0.35 | 0.35 | 98 | 1013.8 |
| 20260903232902 | 69 | 0 | 0.0 | 2.0 | 0.00 | 0.35 | 0.35 | 98 | 1013.8 |
| 20260903232051 | 69 | 87 | 0.0 | 2.0 | 0.00 | 0.35 | 0.35 | 98 | 1013.5 |
| 20260903231902 | 69 | 0 | 0.0 | 4.0 | 0.00 | 0.35 | 0.35 | 98 | 1013.4 |
| 20260903231052 | 69 | 0 | 1.0 | 4.0 | 0.00 | 0.35 | 0.35 | 98 | 1013.0 |
| 20260903230901 | 69 | 90 | 1.0 | 4.0 | 0.00 | 0.35 | 0.35 | 98 | 1013.0 |
| 20260903230338 | 69 | 0 | 1.0 | 3.0 | 0.00 | 0.35 | 0.35 | 98 | 1013.0 |
| 20260903230139 | 69 | 205 | 1.0 | 3.0 | 0.00 | 0.35 | 0.35 | 98 | 1013.0 |
| 20260903225525 | 69 | 92 | 1.0 | 3.0 | 0.00 | 0.35 | 0.35 | 98 | 1013.3 |
| 20260903224901 | 69 | 203 | 1.0 | 3.0 | 0.00 | 0.35 | 0.35 | 98 | 1013.3 |
| 20260903224048 | 69 | 0 | 0.0 | 3.0 | 0.00 | 0.35 | 0.35 | 98 | 1013.8 |
| 20260903224000 | 69 | 0 | 0.0 | 3.0 | 0.00 | 0.35 | 0.35 | 98 | 1014.2 |
| 20260903223901 | 69 | 0 | 0.0 | 3.0 | 0.00 | 0.35 | 0.35 | 98 | 1013.9 |
| 20260903222901 | 69 | 0 | 0.0 | 3.0 | 0.00 | 0.35 | 0.35 | 98 | 1014.2 |
| 20260903222046 | 69 | 0 | 1.0 | 3.0 | 0.00 | 0.35 | 0.35 | 98 | 1014.0 |
| 20260903221902 | 69 | 105 | 0.0 | 3.0 | 0.00 | 0.35 | 0.35 | 97 | 1014.3 |
| 20260903221046 | 69 | 0 | 1.0 | 3.0 | 0.00 | 0.35 | 0.35 | 97 | 1014.3 |
| 20260903220904 | 69 | 63 | 1.0 | 3.0 | 0.00 | 0.35 | 0.35 | 97 | 1014.2 |
| 20260903220043 | 69 | 249 | 0.0 | 3.0 | 0.00 | 0.35 | 0.35 | 97 | 1014.5 |
| 20260903215900 | 69 | 0 | 0.0 | 3.0 | 0.00 | 0.35 | 0.35 | 97 | 1014.4 |
| 20260903215044 | 70 | 93 | 1.0 | 3.0 | 0.00 | 0.35 | 0.35 | 97 | 1014.3 |
| 20260903214903 | 70 | 0 | 1.0 | 3.0 | 0.00 | 0.35 | 0.35 | 97 | 1014.3 |
| 20260903214342 | 69 | 0 | 2.0 | 6.0 | 0.00 | 0.35 | 0.35 | 96 | 1014.3 |
| 20260903214132 | 69 | 215 | 2.0 | 6.0 | 0.00 | 0.35 | 0.35 | 96 | 1014.5 |
| 20260903213038 | 70 | 0 | 0.0 | 3.0 | 0.02 | 0.35 | 0.35 | 96 | 1014.9 |
| 20260903212901 | 70 | 0 | 0.0 | 3.0 | 0.02 | 0.35 | 0.35 | 95 | 1014.7 |
| 20260903212338 | 70 | 0 | 1.0 | 3.0 | 0.05 | 0.35 | 0.35 | 94 | 1014.4 |
| 20260903212132 | 70 | 0 | 1.0 | 3.0 | 0.04 | 0.35 | 0.35 | 94 | 1014.5 |
| 20260903211513 | 70 | 68 | 1.0 | 4.0 | 0.06 | 0.35 | 0.35 | 94 | 1014.4 |
| 20260903210903 | 70 | 0 | 1.0 | 6.0 | 0.06 | 0.35 | 0.35 | 94 | 1014.5 |
| 20260903210829 | 70 | 0 | 1.0 | 6.0 | 0.07 | 0.35 | 0.35 | 95 | 1014.5 |
| 20260903210133 | 70 | 73 | 1.0 | 6.0 | 0.07 | 0.35 | 0.35 | 95 | 1014.5 |
| 20260903205037 | 69 | 17 | 2.0 | 9.0 | 0.08 | 0.35 | 0.35 | 96 | 1014.8 |
| 20260903204901 | 69 | 35 | 2.0 | 9.0 | 0.08 | 0.35 | 0.35 | 97 | 1014.7 |
| 20260903204037 | 69 | 328 | 1.0 | 6.0 | 0.17 | 0.35 | 0.35 | 98 | 1014.8 |
| 20260903203854 | 69 | 0 | 2.0 | 7.0 | 0.18 | 0.35 | 0.35 | 98 | 1014.9 |
| 20260903203329 | 69 | 358 | 2.0 | 7.0 | 0.16 | 0.33 | 0.33 | 97 | 1014.7 |
| 20260903203127 | 69 | 326 | 2.0 | 7.0 | 0.17 | 0.33 | 0.33 | 97 | 1014.8 |
| 20260903202518 | 68 | 356 | 2.0 | 7.0 | 0.14 | 0.31 | 0.31 | 97 | 1015.1 |
| 20260903201854 | 68 | 1 | 2.0 | 7.0 | 0.13 | 0.30 | 0.30 | 97 | 1015.2 |
| 20260903201035 | 68 | 316 | 2.0 | 9.0 | 0.12 | 0.29 | 0.29 | 97 | 1015.5 |
| 20260903200856 | 68 | 296 | 2.0 | 9.0 | 0.12 | 0.29 | 0.29 | 97 | 1015.4 |
| 20260903200031 | 69 | 333 | 3.0 | 7.0 | 0.11 | 0.28 | 0.28 | 96 | 1015.1 |
| 20260903195853 | 69 | 355 | 3.0 | 7.0 | 0.11 | 0.28 | 0.28 | 96 | 1015.0 |
| 20260903195031 | 69 | 39 | 4.0 | 12.0 | 0.10 | 0.27 | 0.27 | 95 | 1015.2 |
| 20260903194853 | 69 | 65 | 4.0 | 12.0 | 0.09 | 0.26 | 0.26 | 95 | 1015.2 |
| 20260903194029 | 70 | 29 | 3.0 | 12.0 | 0.01 | 0.18 | 0.17 | 94 | 1015.7 |
| 20260903193852 | 70 | 279 | 3.0 | 12.0 | 0.00 | 0.17 | 0.17 | 94 | 1015.5 |
| 20260903193029 | 71 | 0 | 2.0 | 9.0 | 0.00 | 0.17 | 0.17 | 95 | 1015.4 |
| 20260903192852 | 71 | 330 | 2.0 | 9.0 | 0.00 | 0.17 | 0.17 | 95 | 1015.3 |
| 20260903192029 | 71 | 0 | 0.0 | 3.0 | 0.00 | 0.17 | 0.17 | 94 | 1014.1 |
| 20260903191853 | 71 | 0 | 0.0 | 3.0 | 0.00 | 0.17 | 0.17 | 94 | 1014.0 |
| 20260903191503 | 71 | 0 | 1.0 | 4.0 | 0.00 | 0.17 | 0.17 | 95 | 1014.1 |
| 20260903190852 | 71 | 0 | 1.0 | 4.0 | 0.00 | 0.17 | 0.17 | 95 | 1014.2 |
| 20260903190029 | 71 | 0 | 2.0 | 7.0 | 0.00 | 0.17 | 0.17 | 95 | 1014.1 |
| 20260903185850 | 71 | 169 | 3.0 | 7.0 | 0.00 | 0.17 | 0.17 | 96 | 1014.1 |
| 20260903185325 | 71 | 0 | 0.0 | 1.0 | 0.00 | 0.17 | 0.17 | 96 | 1013.9 |
| 20260903185122 | 71 | 299 | 1.0 | 5.0 | 0.00 | 0.17 | 0.17 | 96 | 1014.4 |
| 20260903184028 | 71 | 0 | 0.0 | 1.0 | 0.00 | 0.17 | 0.17 | 96 | 1013.3 |
| 20260903183851 | 72 | 0 | 0.0 | 1.0 | 0.00 | 0.17 | 0.17 | 96 | 1013.1 |
| 20260903183028 | 72 | 0 | 0.0 | 2.0 | 0.00 | 0.17 | 0.17 | 95 | 1013.8 |
| 20260903182850 | 72 | 0 | 0.0 | 2.0 | 0.00 | 0.17 | 0.17 | 95 | 1013.7 |
| 20260903182030 | 72 | 0 | 0.0 | 1.0 | 0.00 | 0.17 | 0.17 | 94 | 1013.6 |
| 20260903181850 | 72 | 0 | 0.0 | 1.0 | 0.00 | 0.17 | 0.17 | 94 | 1013.8 |
| 20260903181030 | 72 | 0 | 0.0 | 2.0 | 0.00 | 0.17 | 0.17 | 93 | 1013.6 |
| 20260903180851 | 72 | 0 | 0.0 | 2.0 | 0.00 | 0.17 | 0.17 | 93 | 1013.6 |
| 20260903180030 | 73 | 137 | 0.0 | 3.0 | 0.00 | 0.17 | 0.17 | 92 | 1013.6 |
| 20260903175846 | 73 | 107 | 0.0 | 3.0 | 0.00 | 0.17 | 0.17 | 92 | 1013.6 |
| 20260903175028 | 73 | 0 | 1.0 | 4.0 | 0.00 | 0.17 | 0.17 | 93 | 1013.6 |
| 20260903174845 | 72 | 0 | 1.0 | 4.0 | 0.00 | 0.17 | 0.17 | 93 | 1013.6 |
| 20260903174030 | 72 | 311 | 0.0 | 3.0 | 0.00 | 0.17 | 0.17 | 92 | 1013.7 |
| 20260903173846 | 72 | 0 | 0.0 | 3.0 | 0.00 | 0.17 | 0.17 | 92 | 1013.7 |
| 20260903173029 | 72 | 343 | 1.0 | 5.0 | 0.06 | 0.17 | 0.17 | 92 | 1013.8 |
| 20260903172845 | 72 | 0 | 1.0 | 5.0 | 0.06 | 0.17 | 0.17 | 92 | 1013.8 |
| 20260903172511 | 71 | 51 | 1.0 | 5.0 | 0.06 | 0.17 | 0.17 | 92 | 1014.0 |
| 20260903171846 | 71 | 0 | 1.0 | 5.0 | 0.06 | 0.17 | 0.17 | 92 | 1014.0 |
| 20260903171028 | 70 | 67 | 1.0 | 4.0 | 0.06 | 0.17 | 0.17 | 93 | 1013.9 |
| 20260903170842 | 70 | 325 | 1.0 | 4.0 | 0.06 | 0.17 | 0.17 | 92 | 1013.9 |
| 20260903170029 | 69 | 0 | 0.0 | 3.0 | 0.07 | 0.17 | 0.17 | 95 | 1014.0 |
| 20260903165844 | 69 | 0 | 1.0 | 3.0 | 0.07 | 0.17 | 0.17 | 95 | 1014.0 |
| 20260903165555 | 68 | 304 | 1.0 | 4.0 | 0.07 | 0.17 | 0.17 | 96 | 1013.9 |
| 20260903165417 | 68 | 0 | 1.0 | 4.0 | 0.07 | 0.17 | 0.17 | 96 | 1013.7 |
| 20260903164321 | 67 | 195 | 1.0 | 5.0 | 0.07 | 0.17 | 0.17 | 95 | 1014.1 |
| 20260903164111 | 67 | 0 | 1.0 | 5.0 | 0.07 | 0.17 | 0.17 | 96 | 1014.1 |
| 20260903163024 | 67 | 231 | 0.0 | 2.0 | 0.05 | 0.11 | 0.11 | 96 | 1014.9 |
| 20260903162839 | 67 | 0 | 0.0 | 2.0 | 0.05 | 0.11 | 0.11 | 96 | 1015.0 |
| 20260903162019 | 67 | 0 | 0.0 | 2.0 | 0.10 | 0.11 | 0.11 | 95 | 1014.6 |
| 20260903161838 | 67 | 0 | 0.0 | 2.0 | 0.11 | 0.11 | 0.11 | 95 | 1014.4 |
| 20260903161016 | 67 | 0 | 1.0 | 3.0 | 0.11 | 0.11 | 0.11 | 95 | 1014.6 |
| 20260903160836 | 67 | 121 | 2.0 | 6.0 | 0.11 | 0.11 | 0.11 | 94 | 1014.6 |
| 20260903160331 | 67 | 310 | 1.0 | 5.0 | 0.10 | 0.10 | 0.09 | 91 | 1015.9 |
| 20260903160106 | 67 | 251 | 2.0 | 6.0 | 0.10 | 0.10 | 0.10 | 90 | 1015.9 |
| 20260903155017 | 68 | 190 | 2.0 | 7.0 | 0.09 | 0.09 | 0.09 | 91 | 1015.8 |
| 20260903154836 | 68 | 268 | 2.0 | 7.0 | 0.09 | 0.09 | 0.09 | 92 | 1015.9 |
| 20260903154313 | 72 | 215 | 3.0 | 14.0 | 0.09 | 0.09 | 0.09 | 91 | 1016.5 |
| 20260903154106 | 71 | 170 | 4.0 | 14.0 | 0.09 | 0.09 | 0.09 | 91 | 1016.2 |
| 20260903153017 | 76 | 160 | 1.0 | 7.0 | 0.07 | 0.07 | 0.06 | 91 | 1016.9 |
| 20260903152833 | 76 | 304 | 1.0 | 5.0 | 0.06 | 0.06 | 0.06 | 90 | 1016.8 |
| 20260903152016 | 77 | 259 | 0.0 | 3.0 | 0.00 | 0.00 | 0.00 | 84 | 1015.8 |
| 20260903151831 | 77 | 226 | 0.0 | 3.0 | 0.00 | 0.00 | 0.00 | 84 | 1015.6 |
| 20260903151014 | 79 | 0 | 0.0 | 2.0 | 0.00 | 0.00 | 0.00 | 83 | 1015.0 |
| 20260903150830 | 80 | 0 | 0.0 | 0.0 | 0.00 | 0.00 | 0.00 | 82 | 1015.0 |
| 20260903150015 | 80 | 0 | 0.0 | 1.0 | 0.00 | 0.00 | 0.00 | 80 | 1014.5 |
| 20260903145829 | 80 | 0 | 0.0 | 1.0 | 0.00 | 0.00 | 0.00 | 80 | 1014.5 |
| 20260903145016 | 81 | 0 | 0.0 | 0.0 | 0.00 | 0.00 | 0.00 | 76 | 1014.3 |
| 20260903144830 | 81 | 0 | 0.0 | 0.0 | 0.00 | 0.00 | 0.00 | 77 | 1014.3 |
| 20260903144016 | 83 | 0 | 0.0 | 3.0 | 0.00 | 0.00 | 0.00 | 73 | 1014.2 |
| 20260903143829 | 83 | 0 | 0.0 | 3.0 | 0.00 | 0.00 | 0.00 | 72 | 1014.2 |
| 20260903143013 | 84 | 152 | 1.0 | 3.0 | 0.00 | 0.00 | 0.00 | 71 | 1014.3 |
| 20260903142828 | 84 | 0 | 1.0 | 3.0 | 0.00 | 0.00 | 0.00 | 71 | 1014.3 |
| 20260903142010 | 83 | 0 | 0.0 | 3.0 | 0.00 | 0.00 | 0.00 | 73 | 1014.3 |
| 20260903141829 | 83 | 0 | 0.0 | 3.0 | 0.00 | 0.00 | 0.00 | 74 | 1014.3 |
| 20260903141312 | 82 | 0 | 0.0 | 4.0 | 0.00 | 0.00 | 0.00 | 72 | 1014.3 |
| 20260903141104 | 82 | 0 | 0.0 | 2.0 | 0.00 | 0.00 | 0.00 | 72 | 1014.2 |
| 20260903140011 | 81 | 137 | 1.0 | 4.0 | 0.00 | 0.00 | 0.00 | 75 | 1014.1 |
| 20260903135829 | 81 | 108 | 1.0 | 4.0 | 0.00 | 0.00 | 0.00 | 77 | 1014.1 |
| 20260903135008 | 80 | 136 | 2.0 | 4.0 | 0.00 | 0.00 | 0.00 | 77 | 1014.3 |
| 20260903134829 | 80 | 131 | 2.0 | 4.0 | 0.00 | 0.00 | 0.00 | 77 | 1014.3 |
| 20260903134008 | 80 | 284 | 0.0 | 3.0 | 0.00 | 0.00 | 0.00 | 78 | 1014.5 |
| 20260903133829 | 80 | 279 | 0.0 | 3.0 | 0.00 | 0.00 | 0.00 | 78 | 1014.4 |
| 20260903133009 | 79 | 0 | 0.0 | 2.0 | 0.00 | 0.00 | 0.00 | 82 | 1014.4 |
| 20260903132822 | 79 | 0 | 0.0 | 2.0 | 0.00 | 0.00 | 0.00 | 82 | 1014.4 |
| 20260903132005 | 78 | 0 | 0.0 | 1.0 | 0.00 | 0.00 | 0.00 | 83 | 1014.4 |
| 20260903131821 | 78 | 0 | 0.0 | 1.0 | 0.00 | 0.00 | 0.00 | 82 | 1014.4 |
| 20260903131004 | 77 | 0 | 1.0 | 4.0 | 0.00 | 0.00 | 0.00 | 85 | 1014.5 |
| 20260903130819 | 76 | 0 | 1.0 | 4.0 | 0.00 | 0.00 | 0.00 | 85 | 1014.5 |
| 20260903130004 | 75 | 297 | 0.0 | 2.0 | 0.00 | 0.00 | 0.00 | 86 | 1014.4 |
| 20260903125820 | 75 | 0 | 0.0 | 2.0 | 0.00 | 0.00 | 0.00 | 87 | 1014.4 |
| 20260903125258 | 74 | 0 | 0.0 | 0.0 | 0.00 | 0.00 | 0.00 | 90 | 1014.5 |
| 20260903125048 | 74 | 341 | 0.0 | 2.0 | 0.00 | 0.00 | 0.00 | 89 | 1014.5 |
| 20260903124005 | 73 | 0 | 0.0 | 2.0 | 0.00 | 0.00 | 0.00 | 90 | 1014.6 |
| 20260903123821 | 73 | 304 | 0.0 | 2.0 | 0.00 | 0.00 | 0.00 | 91 | 1014.7 |
| 20260903123005 | 72 | 0 | 0.0 | 2.0 | 0.00 | 0.00 | 0.00 | 93 | 1014.8 |
| 20260903122826 | 72 | 0 | 0.0 | 0.0 | 0.00 | 0.00 | 0.00 | 93 | 1014.8 |
| 20260903122006 | 72 | 0 | 0.0 | 0.0 | 0.00 | 0.00 | 0.00 | 93 | 1014.8 |
| 20260903121808 | 72 | 0 | 0.0 | 0.0 | 0.00 | 0.00 | 0.00 | 93 | 1014.8 |
| 20260903121003 | 71 | 0 | 0.0 | 2.0 | 0.00 | 0.00 | 0.00 | 92 | 1014.7 |
| 20260903120807 | 71 | 0 | 0.0 | 2.0 | 0.00 | 0.00 | 0.00 | 92 | 1014.7 |
| 20260903120002 | 71 | 288 | 0.0 | 2.0 | 0.00 | 0.00 | 0.00 | 94 | 1014.6 |
| 20260903115934 | 70 | 0 | 0.0 | 0.0 | 0.00 | 0.00 | 0.00 | 95 | 1014.6 |
| 20260903115807 | 70 | 272 | 0.0 | 2.0 | 0.00 | 0.00 | 0.00 | 95 | 1014.6 |
| 20260903114807 | 70 | 0 | 0.0 | 0.0 | 0.00 | 0.00 | 0.00 | 95 | 1014.6 |
| 20260903114245 | 69 | 0 | 0.0 | 0.0 | 0.00 | 0.00 | 0.00 | 95 | 1014.6 |
| 20260903114032 | 69 | 0 | 0.0 | 0.0 | 0.00 | 0.00 | 0.00 | 95 | 1014.6 |
| 20260903113002 | 70 | 0 | 0.0 | 0.0 | 0.00 | 0.00 | 0.00 | 94 | 1014.5 |
| 20260903112804 | 70 | 0 | 0.0 | 0.0 | 0.00 | 0.00 | 0.00 | 94 | 1014.5 |
| 20260903112004 | 70 | 0 | 0.0 | 0.0 | 0.00 | 0.00 | 0.00 | 94 | 1014.3 |
| 20260903111803 | 70 | 0 | 0.0 | 0.0 | 0.00 | 0.00 | 0.00 | 93 | 1014.3 |
| 20260903111003 | 70 | 0 | 0.0 | 0.0 | 0.00 | 0.00 | 0.00 | 94 | 1014.2 |
| 20260903110803 | 70 | 0 | 0.0 | 0.0 | 0.00 | 0.00 | 0.00 | 94 | 1014.2 |
| 20260903110004 | 70 | 0 | 0.0 | 0.0 | 0.00 | 0.00 | 0.00 | 93 | 1014.2 |
| 20260903105803 | 70 | 0 | 0.0 | 0.0 | 0.00 | 0.00 | 0.00 | 94 | 1014.2 |
| 20260903105003 | 70 | 0 | 0.0 | 0.0 | 0.00 | 0.00 | 0.00 | 93 | 1014.1 |
| 20260903104803 | 70 | 0 | 0.0 | 0.0 | 0.00 | 0.00 | 0.00 | 93 | 1014.1 |
| 20260903104241 | 70 | 0 | 0.0 | 0.0 | 0.00 | 0.00 | 0.00 | 93 | 1014.0 |
| 20260903104030 | 70 | 0 | 0.0 | 0.0 | 0.00 | 0.00 | 0.00 | 93 | 1014.0 |
| 20260903103007 | 70 | 0 | 0.0 | 0.0 | 0.00 | 0.00 | 0.00 | 93 | 1013.9 |
| 20260903102802 | 70 | 0 | 0.0 | 0.0 | 0.00 | 0.00 | 0.00 | 93 | 1013.9 |
| 20260903102002 | 70 | 0 | 0.0 | 0.0 | 0.00 | 0.00 | 0.00 | 92 | 1013.9 |
| 20260903101802 | 70 | 0 | 0.0 | 2.0 | 0.00 | 0.00 | 0.00 | 92 | 1013.8 |
| 20260903101510 | 70 | 0 | 0.0 | 2.0 | 0.00 | 0.00 | 0.00 | 92 | 1013.9 |
| 20260903101304 | 70 | 267 | 0.0 | 2.0 | 0.00 | 0.00 | 0.00 | 92 | 1014.0 |
| 20260903100002 | 71 | 0 | 0.0 | 0.0 | 0.00 | 0.00 | 0.00 | 92 | 1013.9 |
| 20260903095802 | 71 | 0 | 0.0 | 0.0 | 0.00 | 0.00 | 0.00 | 92 | 1013.9 |
| 20260903095002 | 71 | 0 | 0.0 | 2.0 | 0.00 | 0.00 | 0.00 | 91 | 1013.9 |
| 20260903094802 | 71 | 0 | 0.0 | 2.0 | 0.00 | 0.00 | 0.00 | 91 | 1013.9 |
| 20260903094002 | 71 | 300 | 1.0 | 2.0 | 0.00 | 0.00 | 0.00 | 91 | 1013.9 |
| 20260903093802 | 71 | 320 | 0.0 | 3.0 | 0.00 | 0.00 | 0.00 | 91 | 1013.9 |
| 20260903093002 | 71 | 0 | 0.0 | 3.0 | 0.00 | 0.00 | 0.00 | 91 | 1013.8 |
| 20260903092802 | 70 | 294 | 0.0 | 3.0 | 0.00 | 0.00 | 0.00 | 93 | 1013.7 |
| 20260903092243 | 71 | 0 | 0.0 | 0.0 | 0.00 | 0.00 | 0.00 | 93 | 1013.6 |
| 20260903092032 | 70 | 0 | 0.0 | 0.0 | 0.00 | 0.00 | 0.00 | 93 | 1013.7 |
| 20260903091003 | 71 | 0 | 0.0 | 0.0 | 0.00 | 0.00 | 0.00 | 93 | 1013.5 |
| 20260903090804 | 71 | 0 | 0.0 | 0.0 | 0.00 | 0.00 | 0.00 | 93 | 1013.6 |
| 20260903090244 | 71 | 0 | 0.0 | 1.0 | 0.00 | 0.00 | 0.00 | 93 | 1013.5 |
| 20260903090032 | 71 | 0 | 0.0 | 1.0 | 0.00 | 0.00 | 0.00 | 93 | 1013.5 |
| 20260903085004 | 71 | 0 | 0.0 | 0.0 | 0.00 | 0.00 | 0.00 | 92 | 1013.5 |
| 20260903084802 | 71 | 0 | 0.0 | 0.0 | 0.00 | 0.00 | 0.00 | 92 | 1013.5 |
| 20260903084004 | 71 | 0 | 0.0 | 0.0 | 0.00 | 0.00 | 0.00 | 91 | 1013.4 |
| 20260903083803 | 71 | 0 | 0.0 | 2.0 | 0.00 | 0.00 | 0.00 | 91 | 1013.4 |
| 20260903083003 | 71 | 303 | 0.0 | 2.0 | 0.00 | 0.00 | 0.00 | 91 | 1013.3 |
| 20260903082803 | 72 | 0 | 0.0 | 0.0 | 0.00 | 0.00 | 0.00 | 91 | 1013.3 |
| 20260903082439 | 72 | 0 | 0.0 | 0.0 | 0.00 | 0.00 | 0.00 | 90 | 1013.3 |
| 20260903081803 | 72 | 0 | 0.0 | 0.0 | 0.00 | 0.00 | 0.00 | 89 | 1013.3 |
| 20260903081003 | 72 | 0 | 0.0 | 2.0 | 0.00 | 0.00 | 0.00 | 89 | 1013.3 |
| 20260903080803 | 72 | 0 | 0.0 | 2.0 | 0.00 | 0.00 | 0.00 | 89 | 1013.3 |
| 20260903080234 | 72 | 0 | 0.0 | 2.0 | 0.00 | 0.00 | 0.00 | 89 | 1013.3 |
| 20260903080031 | 72 | 0 | 0.0 | 2.0 | 0.00 | 0.00 | 0.00 | 89 | 1013.3 |
| 20260903075447 | 72 | 0 | 0.0 | 2.0 | 0.00 | 0.00 | 0.00 | 90 | 1013.3 |
| 20260903074803 | 72 | 320 | 0.0 | 2.0 | 0.00 | 0.00 | 0.00 | 90 | 1013.3 |
| 20260903074003 | 72 | 0 | 0.0 | 1.0 | 0.00 | 0.00 | 0.00 | 91 | 1013.3 |
| 20260903073803 | 72 | 0 | 0.0 | 0.0 | 0.00 | 0.00 | 0.00 | 92 | 1013.3 |
| 20260903073006 | 71 | 0 | 0.0 | 2.0 | 0.00 | 0.00 | 0.00 | 92 | 1013.4 |
| 20260903072803 | 71 | 0 | 0.0 | 2.0 | 0.00 | 0.00 | 0.00 | 92 | 1013.4 |
| 20260903072005 | 71 | 0 | 0.0 | 1.0 | 0.00 | 0.00 | 0.00 | 93 | 1013.5 |
| 20260903071802 | 71 | 104 | 0.0 | 1.0 | 0.00 | 0.00 | 0.00 | 93 | 1013.4 |
| 20260903071440 | 71 | 0 | 0.0 | 1.0 | 0.00 | 0.00 | 0.00 | 96 | 1013.5 |
| 20260903070803 | 71 | 0 | 0.0 | 1.0 | 0.00 | 0.00 | 0.00 | 96 | 1013.5 |
| 20260903070237 | 70 | 0 | 0.0 | 2.0 | 0.00 | 0.00 | 0.00 | 96 | 1013.4 |
| 20260903070035 | 70 | 0 | 0.0 | 2.0 | 0.00 | 0.00 | 0.00 | 96 | 1013.4 |
| 20260903065243 | 70 | 0 | 0.0 | 0.0 | 0.00 | 0.00 | 0.00 | 97 | 1013.3 |
| 20260903065025 | 70 | 152 | 0.0 | 2.0 | 0.00 | 0.00 | 0.00 | 97 | 1013.4 |
| 20260903064000 | 70 | 0 | 0.0 | 0.0 | 0.00 | 0.00 | 0.00 | 97 | 1013.0 |
| 20260903063758 | 70 | 0 | 0.0 | 0.0 | 0.00 | 0.00 | 0.00 | 97 | 1013.0 |
| 20260903063001 | 70 | 0 | 0.0 | 0.0 | 0.00 | 0.00 | 0.00 | 97 | 1013.4 |
| 20260903062758 | 70 | 0 | 0.0 | 0.0 | 0.00 | 0.00 | 0.00 | 97 | 1013.5 |
| 20260903062001 | 70 | 0 | 0.0 | 0.0 | 0.00 | 0.00 | 0.00 | 97 | 1013.5 |
| 20260903061759 | 70 | 0 | 0.0 | 0.0 | 0.00 | 0.00 | 0.00 | 97 | 1013.5 |
| 20260903061001 | 70 | 0 | 0.0 | 0.0 | 0.00 | 0.00 | 0.00 | 97 | 1013.4 |
| 20260903060754 | 70 | 0 | 0.0 | 0.0 | 0.00 | 0.00 | 0.00 | 97 | 1013.4 |
| 20260903060000 | 70 | 0 | 0.0 | 0.0 | 0.00 | 0.00 | 0.00 | 96 | 1013.6 |
| 20260903055752 | 70 | 0 | 0.0 | 0.0 | 0.00 | 0.00 | 0.00 | 96 | 1013.6 |
| 20260903055003 | 70 | 0 | 0.0 | 0.0 | 0.00 | 0.00 | 0.00 | 96 | 1013.5 |
| 20260903054753 | 70 | 0 | 0.0 | 0.0 | 0.00 | 0.00 | 0.00 | 96 | 1013.5 |
| 20260903054446 | 71 | 0 | 0.0 | 1.0 | 0.00 | 0.00 | 0.00 | 96 | 1013.5 |
| 20260903053752 | 71 | 0 | 0.0 | 1.0 | 0.00 | 0.00 | 0.00 | 96 | 1013.5 |
| 20260903053000 | 71 | 0 | 0.0 | 0.0 | 0.00 | 0.00 | 0.00 | 95 | 1013.6 |
| 20260903052753 | 71 | 0 | 0.0 | 0.0 | 0.00 | 0.00 | 0.00 | 95 | 1013.6 |
| 20260903052000 | 71 | 0 | 0.0 | 0.0 | 0.00 | 0.00 | 0.00 | 95 | 1013.7 |
| 20260903051755 | 71 | 0 | 0.0 | 0.0 | 0.00 | 0.00 | 0.00 | 94 | 1013.7 |
| 20260903051002 | 72 | 0 | 0.0 | 1.0 | 0.00 | 0.00 | 0.00 | 94 | 1013.6 |
| 20260903050752 | 72 | 0 | 0.0 | 1.0 | 0.00 | 0.00 | 0.00 | 94 | 1013.6 |
| 20260903050001 | 72 | 0 | 0.0 | 0.0 | 0.00 | 0.00 | 0.00 | 94 | 1013.7 |
| 20260903045750 | 72 | 0 | 0.0 | 0.0 | 0.00 | 0.00 | 0.00 | 94 | 1013.7 |
| 20260903045001 | 72 | 0 | 0.0 | 1.0 | 0.00 | 0.00 | 0.00 | 93 | 1013.8 |
| 20260903044750 | 72 | 0 | 0.0 | 3.0 | 0.00 | 0.00 | 0.00 | 93 | 1013.8 |
| 20260903044439 | 72 | 0 | 0.0 | 3.0 | 0.00 | 0.00 | 0.00 | 94 | 1013.7 |
| 20260903043750 | 72 | 0 | 0.0 | 3.0 | 0.00 | 0.00 | 0.00 | 93 | 1013.7 |
| 20260903043440 | 72 | 0 | 1.0 | 4.0 | 0.00 | 0.00 | 0.00 | 94 | 1013.6 |
| 20260903042750 | 72 | 0 | 1.0 | 4.0 | 0.00 | 0.00 | 0.00 | 94 | 1013.6 |
| 20260903042001 | 73 | 0 | 0.0 | 0.0 | 0.00 | 0.00 | 0.00 | 93 | 1013.4 |
| 20260903041750 | 73 | 0 | 0.0 | 0.0 | 0.00 | 0.00 | 0.00 | 93 | 1013.4 |
| 20260903041000 | 73 | 0 | 0.0 | 0.0 | 0.00 | 0.00 | 0.00 | 93 | 1013.4 |
| 20260903040747 | 73 | 0 | 0.0 | 0.0 | 0.00 | 0.00 | 0.00 | 93 | 1013.4 |
| 20260903040001 | 73 | 0 | 0.0 | 3.0 | 0.00 | 0.00 | 0.00 | 92 | 1013.4 |
| 20260903035747 | 73 | 0 | 0.0 | 3.0 | 0.00 | 0.00 | 0.00 | 92 | 1013.4 |
| 20260903035001 | 73 | 151 | 0.0 | 3.0 | 0.00 | 0.00 | 0.00 | 92 | 1013.6 |
| 20260903034747 | 73 | 0 | 0.0 | 2.0 | 0.00 | 0.00 | 0.00 | 92 | 1013.6 |
| 20260903034001 | 73 | 0 | 0.0 | 3.0 | 0.00 | 0.00 | 0.00 | 91 | 1013.7 |
| 20260903033749 | 73 | 0 | 0.0 | 3.0 | 0.00 | 0.00 | 0.00 | 91 | 1013.7 |
| 20260903033234 | 73 | 153 | 2.0 | 7.0 | 0.00 | 0.00 | 0.00 | 91 | 1013.3 |
| 20260903033025 | 73 | 0 | 1.0 | 6.0 | 0.00 | 0.00 | 0.00 | 91 | 1013.3 |
| 20260903032002 | 73 | 160 | 2.0 | 7.0 | 0.00 | 0.00 | 0.00 | 93 | 1013.7 |
| 20260903031747 | 73 | 148 | 1.0 | 3.0 | 0.00 | 0.00 | 0.00 | 93 | 1013.5 |
| 20260903031001 | 72 | 0 | 0.0 | 2.0 | 0.00 | 0.00 | 0.00 | 94 | 1012.7 |
| 20260903030747 | 72 | 0 | 0.0 | 2.0 | 0.00 | 0.00 | 0.00 | 94 | 1012.5 |
| 20260903030226 | 73 | 0 | 0.0 | 0.0 | 0.00 | 0.00 | 0.00 | 94 | 1012.6 |
| 20260903030025 | 72 | 0 | 0.0 | 1.0 | 0.00 | 0.00 | 0.00 | 94 | 1012.6 |
| 20260903025001 | 73 | 0 | 0.0 | 0.0 | 0.00 | 0.00 | 0.00 | 94 | 1012.1 |
| 20260903024747 | 73 | 0 | 0.0 | 0.0 | 0.00 | 0.00 | 0.00 | 94 | 1012.2 |
| 20260903024001 | 73 | 0 | 0.0 | 0.0 | 0.00 | 0.00 | 0.00 | 93 | 1012.4 |
| 20260903023746 | 73 | 0 | 0.0 | 0.0 | 0.00 | 0.00 | 0.00 | 93 | 1012.4 |
| 20260903023002 | 74 | 0 | 0.0 | 0.0 | 0.00 | 0.00 | 0.00 | 91 | 1012.3 |
| 20260903022744 | 74 | 0 | 0.0 | 0.0 | 0.00 | 0.00 | 0.00 | 91 | 1012.3 |
| 20260903022436 | 74 | 0 | 0.0 | 0.0 | 0.00 | 0.00 | 0.00 | 90 | 1012.7 |
| 20260903021745 | 74 | 0 | 0.0 | 0.0 | 0.00 | 0.00 | 0.00 | 90 | 1012.9 |
| 20260903021002 | 75 | 0 | 0.0 | 0.0 | 0.00 | 0.00 | 0.00 | 88 | 1013.3 |
| 20260903020745 | 75 | 0 | 0.0 | 0.0 | 0.00 | 0.00 | 0.00 | 87 | 1013.4 |
| 20260903020445 | 76 | 0 | 0.0 | 0.0 | 0.00 | 0.00 | 0.00 | 85 | 1013.5 |
| 20260903015744 | 76 | 0 | 0.0 | 0.0 | 0.00 | 0.00 | 0.00 | 85 | 1013.4 |
| 20260903015002 | 76 | 0 | 0.0 | 0.0 | 0.00 | 0.00 | 0.00 | 84 | 1013.6 |
| 20260903014745 | 76 | 0 | 0.0 | 0.0 | 0.00 | 0.00 | 0.00 | 83 | 1013.5 |
| 20260903014457 | 76 | 0 | 0.0 | 2.0 | 0.00 | 0.00 | 0.00 | 83 | 1013.5 |
| 20260903013742 | 76 | 0 | 0.0 | 2.0 | 0.00 | 0.00 | 0.00 | 83 | 1013.4 |
| 20260903013002 | 76 | 0 | 1.0 | 4.0 | 0.00 | 0.00 | 0.00 | 82 | 1013.3 |
| 20260903012743 | 76 | 0 | 1.0 | 4.0 | 0.00 | 0.00 | 0.00 | 82 | 1013.4 |
| 20260903012708 | 77 | 0 | 1.0 | 4.0 | 0.00 | 0.00 | 0.00 | 84 | 1013.4 |
| 20260903012022 | 77 | 0 | 1.0 | 4.0 | 0.00 | 0.00 | 0.00 | 83 | 1013.4 |